Date,TemperatureHighF,TemperatureAvgF,TemperatureLowF,DewpointHighF,DewpointAvgF,DewpointLowF,HumidityHigh,HumidityAvg,HumidityLow,PressureMaxIn,PressureMinIn,WindSpeedMaxMPH,WindSpeedAvgMPH,GustSpeedMaxMPH,PrecipitationSumIn
2013-11-1,52.9,41.7,31.5,32.3,26.4,20.8,79,56,32,30.24,29.92,18,4,18,0.00
2013-11-2,65.8,41.3,25.3,31.0,24.9,19.9,84,58,21,30.23,29.79,9,1,9,0.00
2013-11-3,68.2,48.5,34.8,29.7,22.6,13.9,81,41,14,29.89,29.59,20,4,20,0.01
2013-11-4,42.2,34.8,28.1,30.4,21.2,14.8,89,59,36,30.05,29.87,14,5,14,0.01
2013-11-5,45.2,33.3,25.0,24.1,16.2,4.2,75,52,22,30.17,29.91,24,4,24,0.00
2013-11-6,53.7,36.2,21.1,18.9,15.0,9.1,65,44,25,30.37,30.13,33,5,33,0.00
2013-11-7,59.2,39.9,25.1,27.2,21.9,16.8,73,51,27,30.42,30.04,12,2,12,0.00
2013-11-8,65.2,46.3,30.3,27.9,23.9,19.6,76,46,19,30.06,29.85,23,3,23,0.00
2013-11-9,66.9,45.6,33.9,33.0,28.3,24.2,74,54,22,30.30,30.06,14,2,14,0.00
2013-11-10,68.1,44.8,28.4,30.0,25.7,20.8,87,53,18,30.30,30.18,8,1,8,0.00
2013-11-11,67.5,38.4,29.4,33.6,25.6,20.5,87,65,18,30.67,30.23,28,3,28,0.00
2013-11-12,59.9,43.0,30.3,31.9,28.5,24.4,89,60,32,30.67,30.40,8,1,8,0.00
2013-11-13,69.3,46.2,26.3,25.3,19.5,10.7,83,43,11,30.40,30.05,16,2,16,0.00
2013-11-14,52.9,45.0,37.4,30.7,26.7,21.4,65,50,32,30.07,29.79,20,4,20,0.00
2013-11-15,37.3,33.8,31.0,27.3,25.4,23.0,75,71,66,29.79,29.71,4,0,4,0.00
2013-11-16,60.9,48.7,36.5,32.2,23.3,14.8,82,41,19,29.58,29.32,20,6,20,0.00
2013-11-17,57.2,44.0,31.9,24.7,19.9,16.0,74,41,21,30.10,29.58,29,6,29,0.00
2013-11-18,65.5,41.9,24.5,21.5,17.2,11.7,76,42,13,30.17,30.04,9,2,9,0.00
2013-11-19,60.9,42.7,27.0,29.2,22.5,16.4,71,47,21,30.05,29.75,16,1,16,0.00
2013-11-20,57.2,41.5,28.9,27.5,25.3,22.5,79,54,29,30.06,29.82,26,3,26,0.00
2013-11-21,28.7,17.3,13.9,23.4,12.6,8.0,88,81,76,30.56,30.05,16,6,16,0.10
2013-11-22,34.8,25.9,16.2,21.0,16.3,7.9,84,68,45,30.61,30.46,14,2,14,0.00
2013-11-23,37.5,28.3,24.1,21.1,17.7,8.4,82,65,46,30.61,30.30,8,1,8,0.00
2013-11-24,36.3,28.6,22.0,26.9,22.0,17.5,85,76,56,30.30,29.96,10,1,10,0.00
2013-11-25,40.7,35.2,26.2,27.7,22.5,15.7,82,60,39,30.32,30.04,20,4,20,0.00
2013-11-26,51.6,34.1,22.9,26.8,21.0,18.0,91,63,28,30.41,30.26,10,1,10,0.00
2013-11-27,64.0,38.6,21.7,23.2,19.7,16.0,81,52,19,30.26,30.05,10,1,10,0.00
2013-11-28,48.7,32.7,23.7,26.9,22.6,18.2,85,68,41,30.25,30.14,10,1,10,0.00
2013-11-29,63.7,39.5,24.3,23.9,20.7,17.6,92,54,18,30.20,30.10,15,2,15,0.00
2013-11-30,65.2,39.3,23.4,19.3,16.4,13.9,76,45,16,30.21,30.11,14,2,14,0.00